Weather History for Birmingham, AL

Change the Weather History Date:

Monday, February 25, 2013

  Actual Average Record
Temperature  
Mean Temperature 52 °F 50 °F  
Max Temperature 58 °F 61 °F 82 °F (1918)
Min Temperature 45 °F 40 °F 12 °F (1967)
Degree Days  
Heating Degree Days 13 15  
Month to date heating degree days 459 444  
Since 1 July heating degree days 1941 2149  
Growing Degree Days 2 (Base 50)    
Moisture  
Dew Point 42 °F    
Average Humidity 66    
Maximum Humidity 93    
Minimum Humidity 38    
Precipitation  
Precipitation 0.70 in 0.16 in 2.88 in (1934)
Month to date precipitation 5.77 4.01  
Year to date precipitation 14.15 8.85  
Snow  
Snow 0.00 in 0.00 in - ()
Month to date snowfall T 0.1  
Since 1 July snowfall 2.1 0.8  
Snow Depth 0.00 in    
Sea Level Pressure  
Sea Level Pressure 29.81 in    
Wind  
Wind Speed 12 mph (East)    
Max Wind Speed 28 mph    
Max Gust Speed 39 mph    
Visibility 9 miles    
Events Rain    
T = Trace of Precipitation, MM = Missing Value Source: NWS Daily Summary

Daily Weather History Graph

Daily Weather History Graph

Search for Another Location

Airport:

Trip Planner

Search our weather history database for the weather conditions in past years. The results will help you decide how hot, cold, wet, or windy it might be!

Date:

Astronomy

Feb. 25, 2013 Rise Set
Actual Time 6:19 AM CST 5:40 PM CST
Civil Twilight 5:54 AM CST 6:05 PM CST
Nautical Twilight 5:25 AM CST 6:34 PM CST
Astronomical Twilight 4:57 AM CST 7:03 PM CST
Moon 5:50 PM CST (2/25) 5:51 AM CST (2/25)
Length of Visible Light 12h 10m
Length of Day
11h 20m
Full, 100% of the Moon is Illuminated
Feb 25
Full
Feb 25
Full
Mar 4
Last Quarter
Mar 11
New
Mar 19
First Quarter

Hourly Weather History & Observations

Time (CST) Temp. Windchill Dew Point Humidity Pressure Visibility Wind Dir Wind Speed Gust Speed Precip Events Conditions
12:53 AM 52.0 °F - 30.0 °F 43% 29.91 in 10.0 mi ENE 10.4 mph - N/A   Clear
1:53 AM 51.1 °F - 30.0 °F 44% 29.92 in 10.0 mi ENE 5.8 mph - N/A   Clear
2:53 AM 51.1 °F - 28.0 °F 41% 29.88 in 10.0 mi NE 9.2 mph - N/A   Clear
3:53 AM 50.0 °F - 28.0 °F 43% 29.87 in 10.0 mi ENE 10.4 mph - N/A   Mostly Cloudy
4:53 AM 51.1 °F - 27.0 °F 39% 29.87 in 10.0 mi ENE 4.6 mph - N/A   Overcast
5:53 AM 48.0 °F - 32.0 °F 54% 29.91 in 7.0 mi East 11.5 mph - 0.01 in Rain Rain
6:53 AM 46.9 °F - 41.0 °F 80% 29.92 in 10.0 mi East 13.8 mph 24.2 mph 0.07 in Rain Light Rain
7:53 AM 46.0 °F 39.9 °F 39.9 °F 79% 29.91 in 10.0 mi East 13.8 mph 25.3 mph 0.00 in   Overcast
8:13 AM 46.4 °F 40.4 °F 39.2 °F 76% 29.93 in 10.0 mi East 13.8 mph 23.0 mph N/A   Overcast
8:26 AM 46.4 °F 40.4 °F 41.0 °F 81% 29.92 in 10.0 mi East 13.8 mph 23.0 mph N/A   Overcast
8:35 AM 46.4 °F 39.2 °F 41.0 °F 81% 29.90 in 10.0 mi East 18.4 mph 29.9 mph N/A   Overcast
8:53 AM 46.0 °F 39.6 °F 42.1 °F 86% 29.90 in 10.0 mi East 15.0 mph 28.8 mph 0.00 in Rain Light Rain
9:53 AM 48.0 °F - 43.0 °F 83% 29.89 in 10.0 mi East 15.0 mph 25.3 mph 0.00 in   Overcast
10:25 AM 50.0 °F - 44.6 °F 82% 29.88 in 10.0 mi East 13.8 mph 25.3 mph N/A   Mostly Cloudy
10:40 AM 51.8 °F - 44.6 °F 76% 29.88 in 10.0 mi ESE 18.4 mph 32.2 mph N/A   Mostly Cloudy
10:53 AM 51.1 °F - 44.1 °F 77% 29.88 in 10.0 mi East 10.4 mph 28.8 mph N/A   Mostly Cloudy
11:03 AM 51.8 °F - 44.6 °F 76% 29.88 in 10.0 mi East 16.1 mph 26.5 mph N/A   Mostly Cloudy
11:16 AM 51.8 °F - 44.6 °F 76% 29.87 in 10.0 mi ESE 18.4 mph 25.3 mph N/A   Overcast
11:31 AM 51.8 °F - 44.6 °F 76% 29.87 in 10.0 mi East 15.0 mph 25.3 mph N/A   Overcast
11:44 AM 51.8 °F - 44.6 °F 76% 29.87 in 10.0 mi East 12.7 mph 24.2 mph N/A   Overcast
11:53 AM 52.0 °F - 46.0 °F 80% 29.86 in 10.0 mi East 15.0 mph 21.9 mph N/A   Mostly Cloudy
12:53 PM 55.0 °F - 48.0 °F 77% 29.84 in 10.0 mi Variable 6.9 mph 17.3 mph N/A   Overcast
1:30 PM 55.4 °F - 48.2 °F 77% 29.83 in 10.0 mi East 8.1 mph - N/A   Overcast
1:53 PM 57.0 °F - 48.9 °F 74% 29.82 in 10.0 mi ESE 8.1 mph - N/A   Overcast
2:53 PM 57.9 °F - 50.0 °F 75% 29.79 in 10.0 mi East 11.5 mph 17.3 mph N/A   Overcast
3:53 PM 55.9 °F - 48.0 °F 75% 29.78 in 10.0 mi ESE 13.8 mph 20.7 mph N/A   Overcast
4:53 PM 53.1 °F - 46.9 °F 80% 29.74 in 10.0 mi ESE 12.7 mph 21.9 mph N/A   Overcast
5:53 PM 52.0 °F - 46.0 °F 80% 29.76 in 10.0 mi ESE 10.4 mph 18.4 mph N/A   Overcast
6:53 PM 52.0 °F - 46.0 °F 80% 29.74 in 10.0 mi ESE 18.4 mph 25.3 mph N/A   Overcast
7:53 PM 51.1 °F - 46.0 °F 83% 29.71 in 10.0 mi Variable 6.9 mph 18.4 mph 0.01 in Rain Light Rain
8:53 PM 50.0 °F - 46.4 °F 87% 29.69 in 6.0 mi East 10.4 mph 21.9 mph N/A Rain Light Rain
9:06 PM 50.0 °F - 46.4 °F 87% 29.69 in 6.0 mi East 18.4 mph 24.2 mph 0.02 in Rain Rain
9:53 PM 48.9 °F - 46.9 °F 93% 29.70 in 4.0 mi ESE 12.7 mph 21.9 mph 0.15 in Rain Rain
10:53 PM 48.9 °F - 46.0 °F 90% 29.59 in 7.0 mi East 19.6 mph 36.8 mph 0.21 in Rain Light Rain
11:05 PM 48.2 °F - 46.4 °F 93% 29.57 in 10.0 mi East 23.0 mph 36.8 mph 0.01 in   Overcast
11:18 PM 48.2 °F - 46.4 °F 93% 29.56 in 9.0 mi ESE 13.8 mph 29.9 mph 0.01 in Rain Light Rain
11:53 PM 48.9 °F - 46.0 °F 90% 29.55 in 4.0 mi ESE 21.9 mph 34.5 mph 0.11 in Rain Rain